RH
22 24 28 30 26 27 36 40 43 43 42 38 34 34 32 30 28 30 26 25 25 26 26 25 26 25 25 28 26 25 24 23 21 21 21 21 21 20 18 18 19 19 17 18 18 19 20
23 21 21 29 32 28 28 35 41 43 44 42 37 33 35 34 33 37 33 29 27 26 27 27 26 27 29 27 27 26 26 24 23 22 22 21 21 20 19 18 19 20 21 20 20 21 22
31 27 25 23 27 33 28 30 35 41 43 44 42 38 34 36 37 39 44 39 35 31 30 30 29 29 28 27 26 27 27 25 24 23 22 22 22 21 21 22 22 23 22 20 20 20 22
45 40 32 30 26 26 32 29 31 35 40 43 43 41 39 35 37 38 42 49 45 39 33 30 29 29 27 25 25 28 29 28 27 26 26 25 25 23 25 24 25 25 23 21 20 22 24
56 56 56 53 34 25 27 27 32 30 34 39 42 42 41 40 37 37 40 43 48 49 44 40 36 33 32 30 28 27 30 30 30 29 28 29 29 28 27 27 26 25 20 21 21 23 25
65 64 65 69 69 45 34 25 23 33 27 32 36 40 41 41 40 40 38 42 45 47 49 47 44 42 38 37 35 32 32 33 33 32 31 31 31 30 29 27 23 23 23 22 22 26 26
70 68 64 65 74 66 53 38 27 24 30 25 30 34 37 39 41 40 42 43 44 45 45 42 44 44 44 41 40 38 35 35 34 34 33 33 32 29 28 28 26 25 24 24 26 26 25
79 71 61 59 62 67 60 57 47 30 26 29 30 28 31 34 38 39 42 42 42 41 40 40 42 42 42 43 44 41 39 38 38 37 37 36 34 34 33 34 33 33 31 31 33 33 32
84 76 62 58 56 58 56 54 53 53 39 26 24 31 30 27 33 38 39 39 40 40 38 39 39 40 41 42 46 45 43 42 41 42 40 39 39 38 36 38 39 38 36 36 36 39 37
74 76 71 59 57 54 48 42 42 48 48 42 27 21 31 34 26 32 41 39 37 39 36 39 42 41 40 41 44 43 41 41 41 42 44 43 42 42 42 41 40 39 38 38 39 40 40
66 65 66 63 59 54 48 41 36 41 45 48 43 29 23 35 40 32 35 39 35 37 43 39 45 45 45 43 42 42 42 41 41 41 42 41 42 42 43 41 41 41 42 42 43 43 45
60 58 54 61 53 50 42 36 35 36 42 47 49 47 32 23 48 51 38 33 38 29 40 44 47 45 46 49 48 46 46 43 44 45 46 46 47 47 46 48 46 48 48 49 49 48 50
60 59 50 49 54 49 39 33 29 30 36 42 51 50 47 29 36 55 59 43 30 27 34 48 49 48 49 52 52 52 52 53 53 53 52 51 51 51 51 50 50 48 47 48 51 56 40
65 55 52 46 46 43 34 30 29 26 34 34 46 50 50 45 37 44 53 56 42 41 44 50 50 52 52 54 56 56 58 60 58 58 54 53 56 52 52 48 47 47 46 46 46 48 43
64 60 50 48 40 33 31 27 27 23 27 34 43 55 50 54 48 51 56 49 45 54 50 53 51 51 55 53 51 54 56 57 55 58 56 55 55 54 55 52 52 53 53 50 51 51 52
57 56 49 47 39 23 22 20 20 28 33 34 37 45 65 54 56 59 61 65 61 59 61 61 52 55 54 54 51 57 60 58 56 53 56 54 53 54 50 53 50 50 51 52 52 51 41
53 54 50 47 42 25 20 20 16 18 33 39 41 42 51 65 63 59 63 70 67 72 76 75 72 70 67 64 64 66 67 60 58 56 51 48 46 42 39 50 51 47 47 43 44 44 37
53 49 49 38 40 30 22 24 15 18 24 25 33 30 54 62 57 57 59 57 58 68 78 77 79 78 72 65 73 75 71 60 46 42 37 33 33 22 35 31 29 30 32 34 42 39 44
48 49 48 39 35 27 24 24 16 17 16 22 16 24 42 47 47 59 54 49 46 45 44 42 40 40 40 33 35 34 30 28 26 25 22 21 20 18 30 37 32 32 32 32 35 36 39
44 44 43 44 35 27 21 22 20 18 19 23 21 17 33 43 53 50 50 48 45 44 40 33 26 22 22 21 23 33 33 33 31 29 27 20 21 21 17 31 33 38 37 37 35 36 32
49 44 42 48 37 26 19 22 18 19 13 9 7 14 22 31 26 24 25 30 26 24 27 26 27 29 26 27 28 33 34 29 25 25 23 24 30 33 34 28 29 34 35 33 36 36 33
39 44 41 38 37 32 17 17 14 12 12 9 14 12 13 17 22 26 29 32 29 33 33 32 26 24 20 20 20 23 22 21 22 25 29 28 36 29 32 28 28 33 35 35 36 41 45
31 36 39 42 35 28 21 16 14 11 9 11 13 17 21 26 23 20 24 21 25 26 25 21 20 20 21 26 24 24 25 26 26 26 27 27 32 35 38 36 40 48 51 51 52 54 57
25 30 33 32 33 30 26 21 16 11 10 9 10 11 13 21 23 25 28 24 21 20 21 22 20 21 28 29 29 31 33 36 37 38 37 39 41 45 52 51 55 55 57 57 56 60 61
22 23 27 27 27 23 20 22 22 12 18 12 13 16 16 21 20 20 19 22 22 22 23 24 25 27 28 31 34 39 42 42 45 46 49 48 49 56 56 55 58 59 60 62 62 60 63
24 21 21 21 23 23 26 24 19 15 13 9 9 10 15 17 25 23 22 23 23 25 26 30 29 28 31 33 35 39 42 45 49 49 47 48 53 53 59 60 57 63 65 67 69 64 69
34 31 26 22 20 21 23 25 26 22 16 21 14 14 14 20 28 26 24 25 27 27 29 33 33 31 30 35 39 43 48 48 51 54 57 53 57 62 65 68 71 71 74 79 80 77 80
23 22 24 28 30 31 29 25 24 25 24 22 20 16 16 24 31 30 28 29 30 29 30 36 32 36 35 38 40 48 51 54 57 63 64 62 64 63 70 76 79 79 80 84 86 86 79
26 27 28 28 27 26 26 27 32 32 29 24 24 21 22 24 36 36 36 36 35 35 36 38 35 39 44 42 47 53 56 60 59 62 63 66 71 77 78 82 87 84 82 78 68 62 58